Weather 🌤️

Recent data

Temperatures

Wind

Pressure

Humidity & Precipitation

Last data
obsTime qcStatus tempAvg heatindexAvg windspeedAvg windgustAvg winddirAvg pressureAvg humidityAvg precipRate precipTotal
2026-08-31 04:59:52 0 19.7 19.7 9.9 21.9 235 997.97 61 0 0
2026-08-31 04:54:52 0 19.8 19.8 11.8 21.9 223 998.14 61 0 0
2026-08-31 04:49:52 0 11 21.9 227 998.14 0 0
2026-08-31 04:44:52 0 10.9 21.9 247 998.14 0 0
2026-08-31 04:39:52 0 7.5 21.9 232 998.31 0 0
2026-08-31 04:34:52 0 20.5 20.5 7.7 21.9 233 998.14 59 0 0
2026-08-31 04:29:52 0 20.5 20.5 12.2 21.9 241 998.14 59 0 0
2026-08-31 04:24:52 0 20.5 20.5 13.9 18.3 230 998.14 59 0 0
2026-08-31 04:19:52 0 20.5 20.5 10.5 15.8 227 998.31 59 0 0
2026-08-31 04:14:52 0 20.5 20.5 9.6 15.8 234 998.31 59 0 0
2026-08-31 04:09:52 0 20.5 20.5 9.2 15.6 227 998.48 59 0 0
2026-08-31 04:04:52 0 20.5 20.5 4.5 14 230 998.48 59 0 0

Hourly data

Temperatures

Wind

Pressure

Humidity & Precipitation

Last data
obsTime qcStatus tempAvg heatindexAvg windspeedAvg windgustAvg winddirAvg pressureAvg humidityAvg precipRate precipTotal
2026-08-31 04:59:52 0 20.3 20.3 9.9 19.4 233 998.31 59.4 0 0
2026-08-31 03:59:51 0 4.7 9.4 230 998.31 0 0
2026-08-31 02:59:52 0 2.1 10.5 226 997.97 0 0
2026-08-31 01:59:54 0 2.5 11 230 997.63 0 0
2026-08-31 00:59:54 0 2.7 8.4 223 997.63 0 0
2026-08-30 23:59:54 0 0.9 4.7 190 997.46 0 0
2026-08-30 22:59:54 0 23.2 23.3 1.9 6.4 179 996.62 65.4 0 0
2026-08-30 21:59:54 0 24.6 24.7 2 7.3 200 995.43 60.7 0 0
2026-08-30 20:59:54 0 26.1 26.3 3 14.1 228 994.25 54.1 0 0
2026-08-30 19:59:56 1 27.2 27.7 7.7 21.1 233 993.4 51.8 0 0
2026-08-30 18:59:54 1 28 28.3 8.4 20.6 232 993.06 48.9 0 0
2026-08-30 17:59:53 1 27.4 28 3.3 7.7 220 993.23 52 0 0
2026-08-30 16:59:54 1 26.8 27.5 2.8 6.9 226 993.74 54 0 0
2026-08-30 15:59:53 1 26.4 26.6 2.1 8.5 232 994.42 55.2 0 0
2026-08-30 14:59:54 1 26 26.1 3.3 8.3 243 994.92 56.5 0 0
2026-08-30 13:59:53 1 25.4 25.5 3.6 8.7 266 995.6 57.3 0 0
2026-08-30 12:59:53 1 24.6 24.6 2.6 6.5 247 996.11 59 0 0
2026-08-30 11:59:53 1 23.9 23.9 2.7 7.5 189 996.62 60.1 0 0
2026-08-30 10:59:53 0 23 23 2.5 7.2 193 996.95 62.2 0 0
2026-08-30 09:59:54 0 2.2 6.9 240 996.95 0 0
2026-08-30 08:59:53 0 1.7 5.9 246 996.62 0 0
2026-08-30 07:59:54 0 1.3 4.3 257 996.45 0 0
2026-08-30 06:59:54 0 0.9 5.6 230 995.94 0 0
2026-08-30 05:59:55 0 0.4 5.7 224 996.28 0 0